Mount Carmel, IL

6:15 AM CDT on April 26, 2017 (GMT -0500)
Mount Carmel Municipal

Weather History for KAJG - December, 2013

Change the Weather History Date:

Saturday, December 14, 2013

  Actual Average (KLWV) Record (KLWV)
Temperature  
Mean Temperature 32 °F -  
Max Temperature 33 °F 40 °F 69 °F (2015)
Min Temperature 30 °F 25 °F 2 °F (2010)
Degree Days  
Heating Degree Days 34    
Moisture  
Dew Point 32 °F    
Average Humidity 95    
Maximum Humidity 100    
Minimum Humidity 80    
Precipitation  
Precipitation 0.35 in - - ()
Sea Level Pressure  
Sea Level Pressure 29.91 in    
Wind  
Wind Speed 6 mph (NNW)    
Max Wind Speed 22 mph    
Max Gust Speed 24 mph    
Visibility 6 miles    
Events Fog , Rain    
Averages and records for this station are not official NWS values.
T = Trace of Precipitation, MM = Missing Value Source: NWS Daily Summary

Daily Weather History Graph

Daily Weather History Graph

Search for Another Location

Airport or City:

Trip Planner

Search our weather history database for the weather conditions in past years. The results will help you decide how hot, cold, wet, or windy it might be!

Date:

Astronomy

Dec. 14, 2013 Rise Set
Actual Time 7:00 AM CST 4:30 PM CST
Civil Twilight 6:31 AM CST 5:00 PM CST
Nautical Twilight 5:57 AM CST 5:33 PM CST
Astronomical Twilight 5:25 AM CST 6:05 PM CST
Moon 2:51 PM CST (12/14) 4:22 AM CST (12/14)
Length of Visible Light 10h 29m
Length of Day
9h 29m
Waxing Gibbous, 94% of the Moon is Illuminated
Dec 14
Waxing Gibbous
Dec 17
Full
Dec 25
Last Quarter
Jan 1
New
Jan 7
First Quarter

Hourly Weather History & Observations

Time (CST) Temp. Windchill Dew Point Humidity Pressure Visibility Wind Dir Wind Speed Gust Speed Precip Events Conditions
12:15 AM 32.0 °F - 32.0 °F 100% 30.03 in 5.0 mi Calm Calm - N/A Rain Light Rain
12:35 AM 32.0 °F - 32.0 °F 100% 30.02 in 4.0 mi Calm Calm - 0.01 in Rain Light Rain
12:55 AM 32.0 °F - 32.0 °F 100% 30.01 in 5.0 mi Calm Calm - 0.02 in Rain Rain
1:15 AM 32.0 °F - 32.0 °F 100% 30.01 in 3.0 mi Calm Calm - N/A Rain Light Rain
1:35 AM 32.0 °F - 32.0 °F 100% 30.01 in 4.0 mi Calm Calm - 0.01 in Rain Rain
1:55 AM 32.0 °F - 32.0 °F 100% 30.00 in 7.0 mi Calm Calm - 0.01 in Rain Rain
2:15 AM 32.0 °F - 32.0 °F 100% 29.99 in 7.0 mi Calm Calm - 0.01 in Rain Rain
2:35 AM 32.0 °F - 32.0 °F 100% 29.98 in 5.0 mi Calm Calm - 0.02 in Rain Rain
2:55 AM 32.0 °F - 32.0 °F 100% 29.97 in 5.0 mi Calm Calm - 0.04 in Rain Light Rain
3:15 AM 32.0 °F - 32.0 °F 100% 29.96 in 10.0 mi Calm Calm - 0.02 in Rain Light Rain
3:35 AM 32.0 °F - 32.0 °F 100% 29.95 in 7.0 mi Calm Calm - 0.04 in Rain Light Rain
3:55 AM 32.0 °F 24.2 °F 32.0 °F 100% 29.93 in 7.0 mi East 9.2 mph - 0.05 in Rain Light Rain
4:15 AM 32.0 °F 24.2 °F 32.0 °F 100% 29.91 in 7.0 mi East 9.2 mph - 0.01 in Rain Light Rain
4:35 AM 33.8 °F 25.8 °F 32.0 °F 93% 29.89 in 7.0 mi East 10.4 mph - 0.02 in Rain Light Rain
4:55 AM 33.8 °F 25.8 °F 32.0 °F 93% 29.89 in 7.0 mi East 10.4 mph - 0.03 in Rain Light Rain
5:15 AM 32.0 °F 23.6 °F 32.0 °F 100% 29.87 in 5.0 mi East 10.4 mph - 0.01 in Rain Light Rain
5:35 AM 33.8 °F 27.0 °F 32.0 °F 93% 29.87 in 7.0 mi East 8.1 mph - 0.03 in Rain Light Rain
5:55 AM 33.8 °F 27.0 °F 32.0 °F 93% 29.88 in 5.0 mi East 8.1 mph - 0.05 in Rain Rain
6:15 AM 33.8 °F 28.6 °F 32.0 °F 93% 29.88 in 3.0 mi East 5.8 mph - 0.03 in   Overcast
6:35 AM 33.8 °F 27.0 °F 32.0 °F 93% 29.86 in 3.0 mi East 8.1 mph - 0.06 in Rain Light Rain
6:55 AM 33.8 °F 28.6 °F 32.0 °F 93% 29.86 in 3.0 mi ENE 5.8 mph - 0.09 in   Overcast
7:15 AM 32.0 °F 26.4 °F 32.0 °F 100% 29.85 in 2.5 mi East 5.8 mph - 0.02 in Rain Light Rain
7:35 AM 32.0 °F 24.8 °F 32.0 °F 100% 29.84 in 3.0 mi East 8.1 mph - 0.04 in Rain Light Rain
7:55 AM 33.8 °F 27.0 °F 32.0 °F 93% 29.84 in 3.0 mi East 8.1 mph - 0.06 in Rain Light Rain
8:15 AM 33.8 °F 27.7 °F 32.0 °F 93% 29.83 in 2.0 mi East 6.9 mph - N/A Rain Light Rain
8:35 AM 33.8 °F 27.7 °F 33.8 °F 100% 29.83 in 2.0 mi East 6.9 mph - N/A   Light Drizzle
8:55 AM 33.8 °F 29.6 °F 33.8 °F 100% 29.83 in 3.0 mi East 4.6 mph - N/A Rain Light Rain
9:15 AM 33.8 °F - 33.8 °F 100% 29.83 in 1.5 mi Calm Calm - N/A Rain Rain
9:35 AM 33.8 °F - 33.8 °F 100% 29.83 in 2.0 mi Calm Calm - N/A   Overcast
9:55 AM 33.8 °F - 33.8 °F 100% 29.82 in 5.0 mi Calm Calm - N/A   Overcast
10:15 AM 33.8 °F - 33.8 °F 100% 29.82 in 7.0 mi Calm Calm - N/A   Overcast
10:35 AM 33.8 °F - 33.8 °F 100% 29.81 in 2.0 mi Calm Calm - N/A   Overcast
10:55 AM 33.8 °F - 33.8 °F 100% 29.81 in 1.5 mi Calm Calm - N/A   Overcast
11:15 AM 33.8 °F 30.8 °F 33.8 °F 100% 29.79 in 1.8 mi NW 3.5 mph - N/A   Overcast
11:35 AM 33.8 °F 30.8 °F 33.8 °F 100% 29.77 in 2.0 mi North 3.5 mph - N/A   Light Drizzle
11:55 AM 33.8 °F 27.7 °F 32.0 °F 93% 29.79 in 1.2 mi WNW 6.9 mph - N/A   Light Drizzle
12:15 PM 33.8 °F 28.6 °F 33.8 °F 100% 29.78 in 1.0 mi NNW 5.8 mph - N/A   Overcast
12:35 PM 33.8 °F 25.3 °F 33.8 °F 100% 29.79 in 0.5 mi WNW 11.5 mph - N/A Fog Fog
12:55 PM 33.8 °F 27.0 °F 32.0 °F 93% 29.79 in 0.5 mi WNW 8.1 mph - N/A Fog Fog
1:15 PM 33.8 °F 27.7 °F 32.0 °F 93% 29.79 in 1.8 mi NW 6.9 mph - N/A   Overcast
1:35 PM 33.8 °F 24.8 °F 32.0 °F 93% 29.79 in 7.0 mi NW 12.7 mph - N/A   Overcast
1:55 PM 33.8 °F 25.3 °F 32.0 °F 93% 29.79 in 10.0 mi WNW 11.5 mph - N/A   Overcast
2:15 PM 33.8 °F 26.4 °F 32.0 °F 93% 29.81 in 10.0 mi WNW 9.2 mph - N/A   Overcast
2:35 PM 33.8 °F 25.3 °F 32.0 °F 93% 29.82 in 10.0 mi NW 11.5 mph - N/A   Overcast
2:55 PM 33.8 °F 25.3 °F 32.0 °F 93% 29.83 in 10.0 mi WNW 11.5 mph - N/A   Overcast
3:15 PM 33.8 °F 24.8 °F 32.0 °F 93% 29.84 in 10.0 mi WNW 12.7 mph 17.3 mph N/A   Overcast
3:35 PM 33.8 °F 25.8 °F 32.0 °F 93% 29.85 in 10.0 mi NW 10.4 mph - N/A   Overcast
3:55 PM 33.8 °F 25.3 °F 32.0 °F 93% 29.87 in 10.0 mi WNW 11.5 mph - N/A   Overcast
4:15 PM 33.8 °F 25.3 °F 32.0 °F 93% 29.88 in 10.0 mi WNW 11.5 mph - N/A   Overcast
4:35 PM 33.8 °F 26.4 °F 32.0 °F 93% 29.89 in 10.0 mi WNW 9.2 mph - N/A   Overcast
4:55 PM 33.8 °F 25.8 °F 32.0 °F 93% 29.89 in 10.0 mi WNW 10.4 mph - N/A   Overcast
5:15 PM 33.8 °F 25.3 °F 32.0 °F 93% 29.90 in 10.0 mi WNW 11.5 mph 17.3 mph N/A   Overcast
5:35 PM 33.8 °F 24.3 °F 32.0 °F 93% 29.91 in 10.0 mi WNW 13.8 mph - N/A   Overcast
5:55 PM 33.8 °F 23.5 °F 32.0 °F 93% 29.92 in 7.0 mi NW 16.1 mph 21.9 mph N/A   Overcast
6:15 PM 32.0 °F 20.8 °F 32.0 °F 100% 29.94 in 7.0 mi WNW 17.3 mph 20.7 mph N/A   Overcast
6:35 PM 32.0 °F 21.6 °F 32.0 °F 100% 29.95 in 5.0 mi NW 15.0 mph 20.7 mph N/A   Overcast
6:55 PM 32.0 °F 21.2 °F 30.2 °F 93% 29.95 in 5.0 mi NW 16.1 mph - N/A   Overcast
7:15 PM 32.0 °F 23.0 °F 30.2 °F 93% 29.96 in 5.0 mi NW 11.5 mph - N/A   Overcast
7:35 PM 32.0 °F 22.1 °F 30.2 °F 93% 29.98 in 5.0 mi NW 13.8 mph 21.9 mph N/A   Overcast
7:55 PM 32.0 °F 22.1 °F 30.2 °F 93% 29.97 in 5.0 mi NW 13.8 mph - N/A   Overcast
8:15 PM 32.0 °F 21.2 °F 30.2 °F 93% 29.98 in 5.0 mi NW 16.1 mph - N/A   Overcast
8:40 PM 32.0 °F 22.1 °F 30.2 °F 93% 29.99 in 5.0 mi NW 13.8 mph 20.7 mph N/A   Overcast
8:55 PM 32.0 °F 19.5 °F 30.2 °F 93% 29.99 in 5.0 mi NW 21.9 mph - N/A   Overcast
9:15 PM 32.0 °F 21.2 °F 30.2 °F 93% 30.00 in 7.0 mi NW 16.1 mph 23.0 mph N/A   Overcast
9:35 PM 32.0 °F 20.8 °F 30.2 °F 93% 30.01 in 7.0 mi NW 17.3 mph 24.2 mph N/A   Overcast
9:55 PM 32.0 °F 21.2 °F 28.4 °F 87% 30.02 in 10.0 mi NW 16.1 mph - N/A   Overcast
10:15 PM 32.0 °F 22.1 °F 28.4 °F 87% 30.03 in 10.0 mi NW 13.8 mph - N/A   Overcast
10:35 PM 32.0 °F 21.6 °F 28.4 °F 87% 30.04 in 10.0 mi NW 15.0 mph 20.7 mph N/A   Overcast
10:55 PM 32.0 °F 22.5 °F 26.6 °F 80% 30.04 in 10.0 mi NW 12.7 mph 18.4 mph N/A   Overcast
11:15 PM 32.0 °F 22.1 °F 26.6 °F 80% 30.05 in 10.0 mi NW 13.8 mph 21.9 mph N/A   Overcast
11:35 PM 30.2 °F 19.8 °F 28.4 °F 93% 30.06 in 10.0 mi NW 13.8 mph - N/A   Overcast
11:55 PM 30.2 °F 19.3 °F 26.6 °F 86% 30.06 in 10.0 mi NW 15.0 mph 21.9 mph N/A   Overcast